Regional Weather Roundup
Issued by NWS Lake Charles, LA

Home | Current Version | Previous Version | Text Only | Print | Product List | Glossary On
Versions: 1 2 3 4 5 6 7 8 9 10 11 12 13 14 15 16 17 18 19 20 21 22 23 24 25 26 27 28 29 30 31 32 33 34 35 36 37 38 39 40 41 42 43 44 45 46 47 48 49 50
000
ASUS44 KLCH 052010
RWRLCH
RWRLCH
REGIONAL WEATHER ROUNDUP
NATIONAL WEATHER SERVICE LAKE CHARLES LA
300 PM CDT SUN JUL 05 2015

Note: "fair" indicates few or no clouds below 12,000 feet with no
significant weather and/or obstructions to visibility.


ACROSS SOUTHEAST TEXAS

CITY           SKY/WX    TMP DP  RH WIND       PRES   REMARKS
BEAUMONT       PTSUNNY   92  75  57 SW13      30.05F HX 103
BEAUMONT CITY    N/A     90  76  63 S12       30.06F HX 100
ORANGE         MOCLDY    90  71  53 S13       30.08F
JASPER         PTSUNNY   92  76  60 S8        30.06F HX 104
$$

ACROSS CENTRAL LOUISIANA

CITY           SKY/WX    TMP DP  RH WIND       PRES   REMARKS
LEESVILLE      PTSUNNY   82  72  71 S8        30.05F
FULLERTON        N/A     81  70  69 CALM      30.05F THUNDER
ALEXANDRIA INT TSTM      71  69  93 SE13      30.07R
ESLER FIELD    TSTM      74  67  78 SW12G24   30.10R
DERIDDER         N/A     79  75  88 CALM      30.07F
OAKDALE        TSTM      69  67  94 CALM      30.07F
OPELOUSAS      CLOUDY    78  74  85 NW10      30.08R THUNDER
$$

ACROSS SOUTHWEST AND SOUTH CENTRAL LOUISIANA

CITY           SKY/WX    TMP DP  RH WIND       PRES   REMARKS
SULPHUR        MOCLDY    87  75  67 S9        30.07F
LAKE CHARLES   CLOUDY    85  76  74 SW7       30.07F
CHENNAULT INT  SUNNY     84  75  74 SW8       30.08
CAMERON PHI    CLEAR     86  77  74 SW8       30.10F
DEQUINCY         N/A     88  78  72 S8        30.06F HX 101
JENNINGS         N/A     84  76  75 SW5       30.07S
LAFAYETTE      CLOUDY    89  75  63 SW13G21   30.06F
NEW IBERIA     NOT AVBL
ABBEVILLE      MOCLDY    89  78  69 SW13      30.07S HX 103
PATTERSON      PTSUNNY   90  75  62 SW10      30.09F HX 100
SALT POINT       N/A     89  78  70 MISG      30.07F HX 103
$$

SELECTED SITES ACROSS THE REGION

CITY           SKY/WX    TMP DP  RH WIND       PRES   REMARKS
HOUSTON BUSH   PTSUNNY   93  73  52 S12       30.04F HX 102
HOUSTON HOBBY  MOSUNNY   91  75  59 S13G18    30.04F HX 101
GALVESTON      MOSUNNY   89  78  70 S15       30.08S HX 103
COLLEGE STAT   MOSUNNY   91  73  55 S14G21    30.02F
CONROE         MOSUNNY   92  68  45 SW10      30.04F
HUNTSVILLE     MOSUNNY   91  71  51 S9        30.04F
LUFKIN         MOSUNNY   94  71  47 S10       30.04F HX 101
SHREVEPORT     MOSUNNY   89  73  59 VRB7      30.02F
MONROE         TSTM      71  69  93 E13G22    30.11F FOG
NATCHEZ MS     PTSUNNY   75  73  94 E6        30.11R
BATON ROUGE    TSTM      76  71  85 W15       30.07F
N.O. INTL ARPT PTSUNNY   92  73  53 SW10      30.07F HX 100
SLIDELL        MOSUNNY   91  74  57 W8        30.09S HX 100
$$

MARINE REPORTS

STATION/POSITION TIME  TEMP    WIND        PRES    VSBY  WAVE
                       AIR SEA DIR/SP/G                  HT/PER
                 (UTC) (F)     (DEG/KT/KT) (MB)    (MI)  (FT/S)
BUOY 30 S HIGH I 1950   85 85  180/ 14/ 17 1017.7F         3/ 6
SEA RIM ST PARK  1900   85     200/ 10/ 12 1019.3F
PORT ARTHUR      1900      84  220/ 11/ 14 1018.9F
SABINE PASS N    1900   86 84  200/ 10/ 14 1019.1F
TEXAS POINT      NOT AVBL
CALCASIEU PASS   1900   84 86  240/  8/ 10   N/A
LK CHARLES BEACH 1900   86 85                N/A
MARSH ISLAND     1900   88     200/  3/  7   N/A           0
FRESH WATER LOCK 1900   85 86  180/ 12/ 14 1019.1F
AMERADA PASS     1900   87 85  190/  4/  8 1019.4F
$$



USA.gov is the U.S. government's official web portal to all federal, state and local government web resources and services.